Tracking 25734 objects as of 27-May-2022
HD Live streaming from Space Station
objects crossing your sky now

TJS-3

Track TJS-3 now!
TJS-3 is classified as:


NORAD ID: 43874
Int'l Code: 2018-110A
Perigee: 35,780.1 km
Apogee: 35,805.1 km
Inclination: 0.0 °
Period: 1,436.0 minutes
Semi major axis: 42163 km
RCS: Unknown
Launch date: December 24, 2018
Source: People's Republic of China (PRC)
Launch site: Xichang Space Center, China (XSC)
aabbcc
Your satellite tracking list
Your tracking list is empty




NASA's NSSDC Master Catalog

Two Line Element Set (TLE):
1 43874U 18110A   22146.87741769  .00000056  00000-0  00000-0 0  9992
2 43874   0.0161 326.8898 0002959  86.3738 206.0362  1.00275807 12552
Source of the keplerian elements: AFSPC